Location: Newark
(12.4436°N, 0.6167°W)
Time: 11:21:46
(UTC+00:00)

Courier 1B Rocket - All Passes

Search period start: 16 December 2019 00:00
Search period end: 26 December 2019 00:00
Orbit: 921 x 1202 km, 28.2° (Epoch: 15 December)

Date Brightness Start Highest point End Pass type
(mag) Time Alt. Az. Time Alt. Az. Time Alt. Az.
16 Dec - 00:09:15 10° SW 00:16:27 40° SSE 00:23:34 10° E night (unlit)
16 Dec - 02:02:29 10° WSW 02:10:17 72° NNW 02:17:46 10° ENE visible
16 Dec - 03:58:01 10° WNW 04:04:36 31° NNW 04:10:51 10° NE visible
16 Dec - 05:54:19 10° NW 05:59:33 21° N 06:04:33 10° NE visible
16 Dec - 07:48:47 10° NW 07:54:28 27° NNE 07:59:52 10° ENE daylight
16 Dec - 09:42:03 10° WNW 09:48:33 65° NNE 09:54:46 10° ESE daylight
16 Dec - 11:36:11 10° W 11:41:52 35° SSW 11:47:29 10° SSE daylight
16 Dec - 23:08:48 10° SSW 23:15:09 27° SSE 23:21:30 10° E night (unlit)
17 Dec - 01:01:04 10° WSW 01:08:56 83° SSE 01:16:38 10° ENE night (unlit)
17 Dec - 02:55:54 10° W 03:03:04 40° NNW 03:09:56 10° NE visible
17 Dec - 04:52:14 10° WNW 04:57:54 23° N 05:03:17 10° NE visible
17 Dec - 06:47:28 10° NW 06:52:58 24° N 06:58:11 10° ENE daylight
17 Dec - 08:40:57 10° NW 08:47:24 46° NNE 08:53:29 10° E daylight
17 Dec - 10:34:37 10° WNW 10:40:56 55° SSW 10:47:01 10° SE daylight
17 Dec - 12:31:21 10° WSW 12:34:13 13° SSW 12:37:05 10° S daylight
17 Dec - 22:08:57 10° S 22:13:49 18° SSE 22:18:45 10° ESE night (unlit)
17 Dec - 23:59:56 10° SW 00:07:37 59° SSE 00:15:15 10° ENE night (unlit)
18 Dec - 01:53:59 10° W 02:01:35 52° NNW 02:08:57 10° NE night (unlit)
18 Dec - 03:50:02 10° WNW 03:56:14 26° NNW 04:02:10 10° NE visible
18 Dec - 05:45:53 10° NW 05:51:21 22° N 05:56:33 10° NE visible
18 Dec - 07:39:49 10° NW 07:46:07 35° NNE 07:52:02 10° E daylight
18 Dec - 09:33:16 10° WNW 09:39:57 84° SSW 09:46:16 10° ESE daylight
18 Dec - 11:28:26 10° W 11:33:11 22° SSW 11:37:52 10° SSE daylight
18 Dec - 21:10:51 10° SSE 21:12:27 11° SSE 21:14:02 10° SE visible
18 Dec - 22:59:10 10° SW 23:06:19 41° SSE 23:13:33 10° E night (unlit)
19 Dec - 00:52:20 10° WSW 01:00:09 71° NNW 01:07:52 10° ENE night (unlit)
19 Dec - 02:47:49 10° WNW 02:54:35 32° NNW 03:01:07 10° NE visible
19 Dec - 04:44:03 10° NW 04:49:40 22° N 04:55:02 10° NE visible
19 Dec - 06:38:35 10° NW 06:44:41 29° NNE 06:50:25 10° ENE daylight
19 Dec - 08:32:01 10° WNW 08:38:52 68° NNE 08:45:15 10° ESE daylight
19 Dec - 10:26:23 10° W 10:32:13 35° SSW 10:37:52 10° SSE daylight
19 Dec - 21:58:49 10° SSW 22:05:02 27° SSE 22:11:25 10° E visible
19 Dec - 23:50:59 10° WSW 23:58:46 85° SSE 00:06:37 10° ENE night (unlit)
20 Dec - 01:45:44 10° W 01:52:59 40° NNW 02:00:05 10° NE night (unlit)
20 Dec - 03:41:59 10° WNW 03:47:56 24° N 03:53:39 10° NE visible
20 Dec - 05:37:12 10° NW 05:43:07 25° N 05:48:43 10° ENE visible
20 Dec - 07:30:50 10° NW 07:37:40 49° NNE 07:44:00 10° E daylight
20 Dec - 09:24:41 10° WNW 09:31:15 55° SSW 09:37:27 10° SE daylight
20 Dec - 11:21:42 10° WSW 11:24:33 13° SSW 11:27:21 10° S daylight
20 Dec - 20:59:04 10° S 21:03:46 18° SSE 21:08:35 10° ESE visible
20 Dec - 22:49:56 10° SW 22:57:27 60° SSE 23:05:08 10° ENE night (unlit)
21 Dec - 00:43:54 10° W 00:51:27 52° NNW 00:58:59 10° NE night (unlit)
21 Dec - 02:39:49 10° WNW 02:46:11 27° N 02:52:24 10° NE visible
21 Dec - 04:35:36 10° NW 04:41:26 23° N 04:47:01 10° NE visible
21 Dec - 06:29:37 10° NW 06:36:18 37° NNE 06:42:33 10° E daylight
21 Dec - 08:23:13 10° WNW 08:30:14 82° SSW 08:36:44 10° ESE daylight
21 Dec - 10:18:36 10° W 10:23:30 22° SSW 10:28:15 10° SSE daylight
21 Dec - 20:01:28 10° SSE 20:02:27 10° SSE 20:03:27 10° SE visible
21 Dec - 21:49:15 10° SW 21:56:11 41° SSE 22:03:23 10° E visible
21 Dec - 23:42:19 10° WSW 23:49:59 70° NNW 23:57:49 10° ENE night (unlit)
22 Dec - 01:37:40 10° WNW 01:44:29 32° NNW 01:51:13 10° NE night (unlit)
22 Dec - 03:33:47 10° NW 03:39:41 23° N 03:45:24 10° NE visible
22 Dec - 05:28:20 10° NW 05:34:49 31° NNE 05:40:55 10° ENE visible
22 Dec - 07:21:54 10° WNW 07:29:05 70° NNE 07:35:45 10° ESE daylight
22 Dec - 09:16:24 10° W 09:22:31 35° SSW 09:28:18 10° SSE daylight
22 Dec - 20:48:59 10° SSW 20:54:58 27° SSE 21:01:13 10° E visible
22 Dec - 22:41:03 10° WSW 22:48:37 86° SSE 22:56:29 10° ENE night (unlit)
23 Dec - 00:35:41 10° W 00:42:51 39° NNW 00:50:04 10° NE night (unlit)
23 Dec - 02:31:47 10° WNW 02:37:53 24° N 02:43:52 10° NE visible
23 Dec - 04:26:55 10° NW 04:33:10 26° N 04:39:09 10° ENE visible
23 Dec - 06:20:37 10° NW 06:27:48 51° NNE 06:34:30 10° E daylight
23 Dec - 08:14:36 10° WNW 08:21:30 54° SSW 08:27:55 10° SE daylight
23 Dec - 10:11:48 10° WSW 10:14:49 13° SSW 10:17:48 10° S daylight
23 Dec - 19:49:21 10° S 19:53:46 17° SSE 19:58:21 10° ESE visible
23 Dec - 21:40:06 10° SW 21:47:19 61° SSE 21:54:57 10° ENE visible
23 Dec - 23:33:56 10° W 23:41:19 51° NNW 23:48:53 10° NE night (unlit)
24 Dec - 01:29:42 10° WNW 01:36:06 27° N 01:42:29 10° NE night (unlit)
24 Dec - 03:25:20 10° NW 03:31:26 24° N 03:37:21 10° ENE visible
24 Dec - 05:19:21 10° NW 05:26:23 39° NNE 05:33:00 10° E visible
24 Dec - 07:13:03 10° WNW 07:20:25 81° SSW 07:27:12 10° ESE daylight
24 Dec - 09:08:35 10° W 09:13:45 22° SSW 09:18:43 10° SSE daylight
24 Dec - 20:39:30 10° SW 20:46:08 41° SSE 20:53:10 10° E visible
24 Dec - 22:32:27 10° WSW 22:39:51 68° NNW 22:47:38 10° ENE night (unlit)
25 Dec - 00:27:40 10° WNW 00:34:22 31° NNW 00:41:11 10° NE night (unlit)
25 Dec - 02:23:35 10° NW 02:29:37 24° N 02:35:35 10° NE visible
25 Dec - 04:18:02 10° NW 04:24:49 32° NNE 04:31:18 10° ENE visible
25 Dec - 06:11:39 10° WNW 06:19:11 73° NNE 06:26:11 10° ESE daylight
25 Dec - 08:06:17 10° W 08:12:43 35° SSW 08:18:45 10° SSE daylight
25 Dec - 19:39:19 10° SSW 19:45:00 27° SSE 19:50:59 10° E visible
25 Dec - 21:31:16 10° WSW 21:38:31 88° SSE 21:46:16 10° ENE visible
25 Dec - 23:25:47 10° W 23:32:44 38° NNW 23:39:55 10° NE night (unlit)
